TimeEST,TemperatureF,Dew PointF,Humidity,Sea Level PressureIn,VisibilityMPH,Wind Direction,Wind SpeedMPH,Gust SpeedMPH,PrecipitationIn,Events,Conditions,WindDirDegrees,DateUTC
12:48 AM,71.6,64.4,78,30.07,10.0,North,9.2,-,N/A,,Overcast,10,2012-12-14 05:48:00
12:53 AM,71.1,64.0,78,30.07,10.0,NNE,8.1,-,N/A,,Overcast,20,2012-12-14 05:53:00
1:53 AM,71.1,64.0,78,30.06,10.0,NNE,11.5,-,N/A,,Overcast,20,2012-12-14 06:53:00
2:53 AM,71.1,64.9,81,30.05,10.0,NNE,13.8,-,N/A,,Overcast,20,2012-12-14 07:53:00
3:53 AM,71.1,64.9,81,30.04,10.0,NNE,11.5,-,N/A,,Overcast,20,2012-12-14 08:53:00
4:53 AM,70.0,64.9,84,30.05,10.0,NNE,10.4,-,N/A,,Overcast,20,2012-12-14 09:53:00
5:53 AM,70.0,64.0,81,30.06,10.0,NNE,10.4,-,N/A,,Overcast,20,2012-12-14 10:53:00
6:53 AM,70.0,64.0,81,30.08,10.0,North,9.2,-,N/A,,Overcast,10,2012-12-14 11:53:00
7:53 AM,70.0,64.0,81,30.09,10.0,North,10.4,-,N/A,,Overcast,10,2012-12-14 12:53:00
8:53 AM,71.1,64.9,81,30.10,10.0,NNE,9.2,-,N/A,,Overcast,20,2012-12-14 13:53:00
9:53 AM,73.0,64.9,76,30.12,10.0,NNE,10.4,16.1,N/A,,Mostly Cloudy,20,2012-12-14 14:53:00
10:53 AM,75.9,66.0,71,30.12,10.0,North,9.2,-,N/A,,Mostly Cloudy,10,2012-12-14 15:53:00
11:07 AM,75.2,64.4,69,30.11,10.0,NNE,10.4,-,N/A,,Mostly Cloudy,30,2012-12-14 16:07:00
11:53 AM,75.0,64.9,71,30.10,10.0,NNE,10.4,-,N/A,,Mostly Cloudy,30,2012-12-14 16:53:00
12:53 PM,75.9,64.9,69,30.07,10.0,NNE,11.5,-,N/A,,Overcast,30,2012-12-14 17:53:00
1:53 PM,78.1,64.9,64,30.06,10.0,NE,10.4,-,N/A,,Clear,40,2012-12-14 18:53:00
2:53 PM,78.1,64.9,64,30.05,10.0,NNE,10.4,-,N/A,,Mostly Cloudy,30,2012-12-14 19:53:00
3:53 PM,78.1,63.0,60,30.03,10.0,ENE,13.8,20.7,N/A,,Partly Cloudy,60,2012-12-14 20:53:00
4:53 PM,77.0,63.0,62,30.04,10.0,ENE,15.0,-,N/A,,Scattered Clouds,60,2012-12-14 21:53:00
5:53 PM,75.9,63.0,64,30.04,10.0,NE,18.4,25.3,N/A,,Mostly Cloudy,50,2012-12-14 22:53:00
6:53 PM,75.0,60.1,60,30.06,10.0,NE,15.0,-,N/A,,Clear,50,2012-12-14 23:53:00
7:53 PM,75.0,62.1,64,30.07,10.0,NE,12.7,-,N/A,,Clear,50,2012-12-15 00:53:00
8:53 PM,75.0,62.1,64,30.07,10.0,ENE,15.0,-,N/A,,Partly Cloudy,60,2012-12-15 01:53:00
9:53 PM,75.0,60.1,60,30.08,10.0,NE,16.1,-,N/A,,Clear,50,2012-12-15 02:53:00
10:53 PM,73.9,63.0,68,30.08,10.0,NE,12.7,-,N/A,,Clear,50,2012-12-15 03:53:00
11:53 PM,73.9,62.1,66,30.06,10.0,NE,12.7,-,N/A,,Clear,50,2012-12-15 04:53:00